Tracking 28091 objects as of 30-Sep-2023
HD Live streaming from Space Station
objects crossing your sky now

STARLINK-3275

Track STARLINK-3275 now!
10-day predictions
STARLINK-3275 is classified as:


NORAD ID: 50188
Int'l Code: 2021-125AJ
Perigee: 530.1 km
Apogee: 532.4 km
Inclination: 53.2 °
Period: 95.1 minutes
Semi major axis: 6902 km
RCS: Unknown
Launch date: December 18, 2021
Source: United States (US)
Launch site: AIR FORCE WESTERN TEST RANGE (AFWTR)
Your satellite tracking list
Your tracking list is empty




NASA's NSSDC Master Catalog

Two Line Element Set (TLE):
1 50188U 21125AJ  23273.14510692 -.00004940  00000-0 -25285-3 0  9992
2 50188  53.2209 266.3534 0001687  92.8869 267.2319 15.13968598 99269
Source of the keplerian elements: AFSPC